Time,TemperatureF,DewpointF,PressureIn,WindDirection,WindDirectionDegrees,WindSpeedMPH,WindSpeedGustMPH,Humidity,HourlyPrecipIn,Conditions,Clouds,dailyrainin,SoftwareType,DateUTC
2013-05-02 00:00:00,20.4,12.5,29.83,North,360,0.0,4.0,71,0.00,,---,0.09,VWS V14.01,2013-05-02 08:00:00,
2013-05-02 00:05:00,20.4,12.5,29.83,North,360,2.0,3.0,71,0.00,,---,0.00,VWS V14.01,2013-05-02 08:05:00,
2013-05-02 00:10:00,20.4,12.2,29.83,North,360,0.0,3.0,70,0.00,,---,0.00,VWS V14.01,2013-05-02 08:10:00,
2013-05-02 00:15:00,20.3,12.1,29.83,North,360,2.0,3.0,70,0.00,,---,0.00,VWS V14.01,2013-05-02 08:15:00,
2013-05-02 00:20:00,20.2,12.0,29.83,North,360,0.0,3.0,70,0.00,,---,0.00,VWS V14.01,2013-05-02 08:20:00,
2013-05-02 00:25:00,20.2,12.3,29.83,North,360,0.0,3.0,71,0.00,,---,0.00,VWS V14.01,2013-05-02 08:25:00,
2013-05-02 00:30:00,20.1,12.2,29.84,North,360,2.0,3.0,71,0.00,,---,0.00,VWS V14.01,2013-05-02 08:30:00,
2013-05-02 00:35:00,20.0,12.1,29.84,North,360,1.0,3.0,71,0.00,,---,0.00,VWS V14.01,2013-05-02 08:35:00,
2013-05-02 00:40:00,20.0,12.1,29.84,North,360,1.0,3.0,71,0.00,,---,0.00,VWS V14.01,2013-05-02 08:40:00,
2013-05-02 00:45:00,20.0,12.1,29.84,North,360,1.0,3.0,71,0.00,,---,0.00,VWS V14.01,2013-05-02 08:45:00,
2013-05-02 00:50:00,20.0,12.1,29.84,North,355,1.0,4.0,71,0.00,,---,0.00,VWS V14.01,2013-05-02 08:50:00,
2013-05-02 00:55:00,20.0,12.4,29.84,North,355,1.0,5.0,72,0.00,,---,0.00,VWS V14.01,2013-05-02 08:55:00,
2013-05-02 01:00:00,20.1,12.5,29.84,North,355,1.0,5.0,72,0.00,,---,0.00,VWS V14.01,2013-05-02 09:00:00,
2013-05-02 01:05:00,20.0,12.4,29.84,North,360,1.0,3.0,72,0.00,,---,0.00,VWS V14.01,2013-05-02 09:05:00,
2013-05-02 01:10:00,20.0,12.4,29.85,North,360,0.0,3.0,72,0.00,,---,0.00,VWS V14.01,2013-05-02 09:10:00,
2013-05-02 01:15:00,19.8,12.2,29.85,North,360,2.0,3.0,72,0.00,,---,0.00,VWS V14.01,2013-05-02 09:15:00,
2013-05-02 01:20:00,19.6,12.4,29.85,North,360,1.0,3.0,73,0.00,,---,0.00,VWS V14.01,2013-05-02 09:20:00,
2013-05-02 01:25:00,19.5,12.3,29.85,North,360,0.0,3.0,73,0.00,,---,0.00,VWS V14.01,2013-05-02 09:25:00,
2013-05-02 01:30:00,19.4,11.9,29.85,North,360,1.0,3.0,72,0.00,,---,0.00,VWS V14.01,2013-05-02 09:30:00,
2013-05-02 01:35:00,19.4,12.2,29.86,North,360,0.0,2.0,73,0.00,,---,0.00,VWS V14.01,2013-05-02 09:35:00,
2013-05-02 01:40:00,19.6,12.4,29.86,North,360,0.0,2.0,73,0.00,,---,0.00,VWS V14.01,2013-05-02 09:40:00,
2013-05-02 01:45:00,19.9,12.7,29.86,North,360,0.0,2.0,73,0.00,,---,0.00,VWS V14.01,2013-05-02 09:45:00,
2013-05-02 01:50:00,20.0,12.4,29.86,North,360,0.0,2.0,72,0.00,,---,0.00,VWS V14.01,2013-05-02 09:50:00,
2013-05-02 01:55:00,20.1,12.5,29.86,North,360,0.0,2.0,72,0.00,,---,0.00,VWS V14.01,2013-05-02 09:55:00,
2013-05-02 02:00:00,19.9,12.3,29.87,North,360,0.0,2.0,72,0.00,,---,0.00,VWS V14.01,2013-05-02 10:00:00,
2013-05-02 02:05:00,19.8,12.6,29.87,North,360,0.0,1.0,73,0.00,,---,0.00,VWS V14.01,2013-05-02 10:05:00,
2013-05-02 02:10:00,19.7,12.1,29.87,North,360,0.0,2.0,72,0.00,,---,0.00,VWS V14.01,2013-05-02 10:10:00,
2013-05-02 02:15:00,19.6,12.4,29.87,North,360,0.0,2.0,73,0.00,,---,0.00,VWS V14.01,2013-05-02 10:15:00,
2013-05-02 02:20:00,19.5,12.3,29.87,North,360,1.0,2.0,73,0.00,,---,0.00,VWS V14.01,2013-05-02 10:20:00,
2013-05-02 02:25:00,19.5,12.3,29.87,North,360,0.0,2.0,73,0.00,,---,0.00,VWS V14.01,2013-05-02 10:25:00,
2013-05-02 02:30:00,19.4,12.2,29.87,North,360,0.0,2.0,73,0.00,,---,0.00,VWS V14.01,2013-05-02 10:30:00,
2013-05-02 02:35:00,19.4,12.2,29.87,North,360,1.0,3.0,73,0.00,,---,0.00,VWS V14.01,2013-05-02 10:35:00,
2013-05-02 02:40:00,19.3,12.1,29.87,North,360,2.0,3.0,73,0.00,,---,0.00,VWS V14.01,2013-05-02 10:40:00,
2013-05-02 02:45:00,19.3,12.4,29.87,North,360,2.0,3.0,74,0.00,,---,0.00,VWS V14.01,2013-05-02 10:45:00,
2013-05-02 02:50:00,19.2,12.3,29.88,North,360,0.0,3.0,74,0.00,,---,0.00,VWS V14.01,2013-05-02 10:50:00,
2013-05-02 02:55:00,19.1,12.2,29.88,North,360,0.0,3.0,74,0.00,,---,0.00,VWS V14.01,2013-05-02 10:55:00,
2013-05-02 03:00:00,19.1,12.5,29.88,North,355,1.0,4.0,75,0.00,,---,0.00,VWS V14.01,2013-05-02 11:00:00,
2013-05-02 03:05:00,19.0,12.1,29.88,North,360,2.0,4.0,74,0.00,,---,0.00,VWS V14.01,2013-05-02 11:05:00,
2013-05-02 03:10:00,19.0,12.1,29.88,North,5,1.0,4.0,74,0.00,,---,0.00,VWS V14.01,2013-05-02 11:10:00,
2013-05-02 03:15:00,18.9,12.0,29.88,North,5,1.0,4.0,74,0.00,,---,0.00,VWS V14.01,2013-05-02 11:15:00,
2013-05-02 03:20:00,18.8,11.9,29.88,North,5,0.0,4.0,74,0.00,,---,0.00,VWS V14.01,2013-05-02 11:20:00,
2013-05-02 03:25:00,18.8,12.2,29.88,North,5,1.0,4.0,75,0.00,,---,0.00,VWS V14.01,2013-05-02 11:25:00,
2013-05-02 03:30:00,18.6,12.0,29.88,North,5,2.0,4.0,75,0.00,,---,0.00,VWS V14.01,2013-05-02 11:30:00,
2013-05-02 03:35:00,18.5,11.9,29.88,North,5,2.0,4.0,75,0.00,,---,0.00,VWS V14.01,2013-05-02 11:35:00,
2013-05-02 03:40:00,18.5,11.9,29.89,North,5,1.0,4.0,75,0.00,,---,0.00,VWS V14.01,2013-05-02 11:40:00,
2013-05-02 03:45:00,18.4,11.8,29.89,North,5,1.0,4.0,75,0.00,,---,0.00,VWS V14.01,2013-05-02 11:45:00,
2013-05-02 03:50:00,18.4,12.1,29.89,North,9,1.0,4.0,76,0.00,,---,0.00,VWS V14.01,2013-05-02 11:50:00,
2013-05-02 03:55:00,18.4,12.1,29.89,North,9,2.0,4.0,76,0.00,,---,0.00,VWS V14.01,2013-05-02 11:55:00,
2013-05-02 04:00:00,18.4,11.8,29.89,North,5,0.0,4.0,75,0.00,,---,0.00,VWS V14.01,2013-05-02 12:00:00,
2013-05-02 04:05:00,18.4,12.1,29.89,North,5,1.0,2.0,76,0.00,,---,0.00,VWS V14.01,2013-05-02 12:05:00,
2013-05-02 04:10:00,18.4,12.1,29.89,North,9,0.0,2.0,76,0.00,,---,0.00,VWS V14.01,2013-05-02 12:10:00,
2013-05-02 04:15:00,18.4,12.1,29.89,North,9,0.0,3.0,76,0.00,,---,0.00,VWS V14.01,2013-05-02 12:15:00,
2013-05-02 04:20:00,18.4,12.4,29.90,North,360,4.0,4.0,77,0.00,,---,0.00,VWS V14.01,2013-05-02 12:20:00,
2013-05-02 04:25:00,18.6,12.6,29.90,North,360,1.0,4.0,77,0.00,,---,0.00,VWS V14.01,2013-05-02 12:25:00,
2013-05-02 04:30:00,18.6,12.6,29.90,North,360,0.0,4.0,77,0.00,,---,0.00,VWS V14.01,2013-05-02 12:30:00,
2013-05-02 04:35:00,18.5,12.5,29.90,North,360,0.0,3.0,77,0.00,,---,0.00,VWS V14.01,2013-05-02 12:35:00,
2013-05-02 04:40:00,18.2,12.5,29.90,North,360,3.0,3.0,78,0.00,,---,0.00,VWS V14.01,2013-05-02 12:40:00,
2013-05-02 04:45:00,18.0,12.3,29.90,North,360,0.0,3.0,78,0.00,,---,0.00,VWS V14.01,2013-05-02 12:45:00,
2013-05-02 04:49:00,17.7,12.0,29.90,North,360,1.0,3.0,78,0.00,,---,0.00,VWS V14.01,2013-05-02 12:49:00,
2013-05-02 04:54:00,17.8,12.7,29.90,North,360,0.0,3.0,80,0.00,,---,0.00,VWS V14.01,2013-05-02 12:54:00,
2013-05-02 04:59:00,17.9,12.8,29.90,North,360,0.0,3.0,80,0.00,,---,0.00,VWS V14.01,2013-05-02 12:59:00,
2013-05-02 05:00:00,18.0,12.9,29.90,North,360,0.0,3.0,80,0.00,,---,0.00,VWS V14.01,2013-05-02 13:00:00,
2013-05-02 05:04:00,18.0,12.9,29.91,North,360,0.0,0.0,80,0.00,,---,0.00,VWS V14.01,2013-05-02 13:04:00,
2013-05-02 05:09:00,18.0,12.9,29.91,North,360,1.0,1.0,80,0.00,,---,0.00,VWS V14.01,2013-05-02 13:09:00,
2013-05-02 05:14:00,17.8,12.4,29.91,North,360,2.0,2.0,79,0.00,,---,0.00,VWS V14.01,2013-05-02 13:14:00,
2013-05-02 05:19:00,17.6,12.2,29.91,North,360,2.0,3.0,79,0.00,,---,0.00,VWS V14.01,2013-05-02 13:19:00,
2013-05-02 05:24:00,17.5,12.1,29.91,North,360,0.0,3.0,79,0.00,,---,0.00,VWS V14.01,2013-05-02 13:24:00,
2013-05-02 05:29:00,17.5,12.4,29.91,North,360,0.0,3.0,80,0.00,,---,0.00,VWS V14.01,2013-05-02 13:29:00,
2013-05-02 05:30:00,17.5,12.4,29.91,North,360,0.0,3.0,80,0.00,,---,0.00,VWS V14.01,2013-05-02 13:30:00,
2013-05-02 05:34:00,17.6,12.8,29.91,North,360,0.0,1.0,81,0.00,,---,0.00,VWS V14.01,2013-05-02 13:34:00,
2013-05-02 05:39:00,17.8,13.0,29.91,North,360,0.0,1.0,81,0.00,,---,0.00,VWS V14.01,2013-05-02 13:39:00,
2013-05-02 05:44:00,18.1,13.3,29.91,North,360,0.0,1.0,81,0.00,,---,0.00,VWS V14.01,2013-05-02 13:44:00,
2013-05-02 05:49:00,18.2,13.4,29.91,North,360,0.0,1.0,81,0.00,,---,0.00,VWS V14.01,2013-05-02 13:49:00,
2013-05-02 05:54:00,18.4,13.6,29.91,North,360,0.0,1.0,81,0.00,,---,0.00,VWS V14.01,2013-05-02 13:54:00,
2013-05-02 05:59:00,18.6,13.5,29.91,North,360,0.0,1.0,80,0.00,,---,0.00,VWS V14.01,2013-05-02 13:59:00,
2013-05-02 06:00:00,18.7,13.6,29.91,North,360,0.0,1.0,80,0.00,,---,0.00,VWS V14.01,2013-05-02 14:00:00,
2013-05-02 06:04:00,18.8,13.7,29.91,North,360,0.0,0.0,80,0.00,,---,0.00,VWS V14.01,2013-05-02 14:04:00,
2013-05-02 06:09:00,18.9,13.8,29.91,North,360,0.0,0.0,80,0.00,,---,0.00,VWS V14.01,2013-05-02 14:09:00,
2013-05-02 06:14:00,19.1,14.2,29.91,North,360,0.0,0.0,81,0.00,,---,0.00,VWS V14.01,2013-05-02 14:14:00,
2013-05-02 06:19:00,19.1,14.2,29.91,North,360,0.0,0.0,81,0.00,,---,0.00,VWS V14.01,2013-05-02 14:19:00,
2013-05-02 06:24:00,19.2,14.3,29.92,North,360,0.0,0.0,81,0.00,,---,0.00,VWS V14.01,2013-05-02 14:24:00,
2013-05-02 06:29:00,19.3,14.4,29.92,North,360,0.0,0.0,81,0.00,,---,0.00,VWS V14.01,2013-05-02 14:29:00,
2013-05-02 06:30:00,19.3,14.4,29.92,North,360,0.0,0.0,81,0.00,,---,0.00,VWS V14.01,2013-05-02 14:30:00,
2013-05-02 06:34:00,19.3,14.7,29.91,North,360,0.0,0.0,82,0.00,,---,0.00,VWS V14.01,2013-05-02 14:34:00,
2013-05-02 06:39:00,19.4,14.8,29.92,North,360,0.0,0.0,82,0.00,,---,0.00,VWS V14.01,2013-05-02 14:39:00,
2013-05-02 06:44:00,19.5,14.6,29.92,North,360,0.0,0.0,81,0.00,,---,0.00,VWS V14.01,2013-05-02 14:44:00,
2013-05-02 06:49:00,19.5,14.6,29.92,North,360,0.0,0.0,81,0.00,,---,0.00,VWS V14.01,2013-05-02 14:49:00,
2013-05-02 06:54:00,19.3,14.4,29.93,North,360,0.0,0.0,81,0.00,,---,0.00,VWS V14.01,2013-05-02 14:54:00,
2013-05-02 06:59:00,19.3,14.4,29.93,North,360,0.0,0.0,81,0.00,,---,0.00,VWS V14.01,2013-05-02 14:59:00,
2013-05-02 07:00:00,19.3,14.7,29.93,North,360,0.0,0.0,82,0.00,,---,0.00,VWS V14.01,2013-05-02 15:00:00,
2013-05-02 07:04:00,19.2,14.6,29.93,North,360,0.0,0.0,82,0.00,,---,0.00,VWS V14.01,2013-05-02 15:04:00,
2013-05-02 07:09:00,19.1,14.5,29.93,North,360,0.0,1.0,82,0.00,,---,0.00,VWS V14.01,2013-05-02 15:09:00,
2013-05-02 07:14:00,19.1,14.8,29.93,North,360,0.0,1.0,83,0.00,,---,0.00,VWS V14.01,2013-05-02 15:14:00,
2013-05-02 07:19:00,19.1,14.8,29.93,North,360,0.0,1.0,83,0.00,,---,0.00,VWS V14.01,2013-05-02 15:19:00,
2013-05-02 07:24:00,19.2,14.9,29.93,North,360,0.0,1.0,83,0.00,,---,0.00,VWS V14.01,2013-05-02 15:24:00,
2013-05-02 07:29:00,19.4,15.1,29.93,North,360,0.0,1.0,83,0.00,,---,0.00,VWS V14.01,2013-05-02 15:29:00,
2013-05-02 07:30:00,19.5,15.5,29.94,North,360,0.0,1.0,84,0.00,,---,0.00,VWS V14.01,2013-05-02 15:30:00,
2013-05-02 07:34:00,19.5,15.2,29.94,North,360,0.0,1.0,83,0.00,,---,0.00,VWS V14.01,2013-05-02 15:34:00,
2013-05-02 07:39:00,19.7,15.7,29.94,North,360,1.0,1.0,84,0.00,,---,0.00,VWS V14.01,2013-05-02 15:39:00,
2013-05-02 07:44:00,19.7,15.4,29.94,North,360,0.0,2.0,83,0.00,,---,0.00,VWS V14.01,2013-05-02 15:44:00,
2013-05-02 07:49:00,19.6,15.6,29.94,North,360,0.0,2.0,84,0.00,,---,0.00,VWS V14.01,2013-05-02 15:49:00,
2013-05-02 07:54:00,19.7,15.9,29.94,North,360,0.0,2.0,85,0.00,,---,0.00,VWS V14.01,2013-05-02 15:54:00,
2013-05-02 07:59:00,19.9,16.1,29.94,North,360,0.0,2.0,85,0.00,,---,0.00,VWS V14.01,2013-05-02 15:59:00,
2013-05-02 08:00:00,19.8,16.0,29.94,North,360,0.0,2.0,85,0.00,,---,0.00,VWS V14.01,2013-05-02 16:00:00,
2013-05-02 08:04:00,19.8,16.0,29.94,North,360,0.0,0.0,85,0.00,,---,0.00,VWS V14.01,2013-05-02 16:04:00,
2013-05-02 08:09:00,20.0,16.2,29.94,North,360,0.0,1.0,85,0.00,,---,0.00,VWS V14.01,2013-05-02 16:09:00,
2013-05-02 08:14:00,20.3,16.5,29.94,North,360,0.0,1.0,85,0.00,,---,0.00,VWS V14.01,2013-05-02 16:14:00,
2013-05-02 08:19:00,20.3,16.2,29.95,NNW,341,1.0,3.0,84,0.00,,---,0.00,VWS V14.01,2013-05-02 16:19:00,
2013-05-02 08:24:00,20.1,18.1,29.95,NNW,341,0.0,3.0,92,0.00,,---,0.00,VWS V14.01,2013-05-02 16:24:00,
2013-05-02 08:29:00,20.1,18.1,29.95,NNW,341,0.0,3.0,92,0.00,,---,0.00,VWS V14.01,2013-05-02 16:29:00,
2013-05-02 08:30:00,20.0,15.9,29.95,NNW,341,1.0,3.0,84,0.00,,---,0.00,VWS V14.01,2013-05-02 16:30:00,
2013-05-02 08:34:00,20.1,16.3,29.95,NNW,341,1.0,1.0,85,0.00,,---,0.00,VWS V14.01,2013-05-02 16:34:00,
2013-05-02 08:39:00,20.2,16.4,29.95,NNW,341,0.0,1.0,85,0.00,,---,0.00,VWS V14.01,2013-05-02 16:39:00,
2013-05-02 08:44:00,20.3,16.2,29.96,NNW,341,0.0,2.0,84,0.00,,---,0.00,VWS V14.01,2013-05-02 16:44:00,
2013-05-02 08:49:00,20.5,16.4,29.96,NNW,341,0.0,2.0,84,0.00,,---,0.00,VWS V14.01,2013-05-02 16:49:00,
2013-05-02 08:54:00,20.6,16.5,29.96,NNW,341,0.0,2.0,84,0.00,,---,0.00,VWS V14.01,2013-05-02 16:54:00,
2013-05-02 08:59:00,20.8,16.7,29.96,NNW,341,0.0,2.0,84,0.00,,---,0.00,VWS V14.01,2013-05-02 16:59:00,
2013-05-02 09:00:00,21.0,16.7,29.96,NNW,341,0.0,2.0,83,0.00,,---,0.00,VWS V14.01,2013-05-02 17:00:00,
2013-05-02 09:04:00,21.1,16.8,29.96,NNW,341,2.0,2.0,83,0.00,,---,0.00,VWS V14.01,2013-05-02 17:04:00,
2013-05-02 09:09:00,21.2,16.3,29.96,NNW,341,2.0,2.0,81,0.00,,---,0.00,VWS V14.01,2013-05-02 17:09:00,
2013-05-02 09:14:00,21.3,16.4,29.96,NNW,345,2.0,3.0,81,0.00,,---,0.00,VWS V14.01,2013-05-02 17:14:00,
2013-05-02 09:19:00,21.5,16.6,29.96,NNW,345,0.0,3.0,81,0.00,,---,0.00,VWS V14.01,2013-05-02 17:19:00,
2013-05-02 09:24:00,21.7,16.8,29.96,NNW,342,0.0,3.0,81,0.00,,---,0.00,VWS V14.01,2013-05-02 17:24:00,
2013-05-02 09:29:00,21.6,16.4,29.96,NNW,342,2.0,3.0,80,0.00,,---,0.00,VWS V14.01,2013-05-02 17:29:00,
2013-05-02 09:30:00,21.5,16.3,29.97,NW,313,1.0,3.0,80,0.00,,---,0.00,VWS V14.01,2013-05-02 17:30:00,
2013-05-02 09:34:00,21.6,16.4,29.97,NW,313,0.0,2.0,80,0.00,,---,0.00,VWS V14.01,2013-05-02 17:34:00,
2013-05-02 09:39:00,21.7,16.5,29.97,NW,313,0.0,3.0,80,0.00,,---,0.00,VWS V14.01,2013-05-02 17:39:00,
2013-05-02 09:44:00,22.0,16.8,29.97,WNW,298,2.0,3.0,80,0.00,,---,0.00,VWS V14.01,2013-05-02 17:44:00,
2013-05-02 09:49:00,22.2,16.7,29.97,NW,304,1.0,3.0,79,0.00,,---,0.00,VWS V14.01,2013-05-02 17:49:00,
2013-05-02 09:54:00,22.6,17.4,29.97,NNW,331,0.0,3.0,80,0.00,,---,0.00,VWS V14.01,2013-05-02 17:54:00,
2013-05-02 09:59:00,23.0,17.5,29.97,WNW,303,2.0,3.0,79,0.00,,---,0.00,VWS V14.01,2013-05-02 17:59:00,
2013-05-02 10:00:00,23.2,17.4,29.97,NW,326,2.0,3.0,78,0.00,,---,0.00,VWS V14.01,2013-05-02 18:00:00,
2013-05-02 10:04:00,23.3,17.2,29.97,NNW,343,1.0,4.0,77,0.00,,---,0.00,VWS V14.01,2013-05-02 18:04:00,
2013-05-02 10:09:00,23.8,17.7,29.97,WNW,291,3.0,4.0,77,0.00,,---,0.00,VWS V14.01,2013-05-02 18:09:00,
2013-05-02 10:14:00,24.0,17.9,29.98,NNW,331,1.0,4.0,77,0.00,,---,0.00,VWS V14.01,2013-05-02 18:14:00,
2013-05-02 10:19:00,24.3,17.5,29.98,NW,320,0.0,4.0,75,0.00,,---,0.00,VWS V14.01,2013-05-02 18:19:00,
2013-05-02 10:24:00,24.0,17.5,29.98,NW,307,0.0,4.0,76,0.00,,---,0.00,VWS V14.01,2013-05-02 18:24:00,
2013-05-02 10:29:00,24.0,17.5,29.98,WNW,302,1.0,4.0,76,0.00,,---,0.00,VWS V14.01,2013-05-02 18:29:00,
2013-05-02 10:30:00,24.0,17.5,29.98,WNW,290,0.0,4.0,76,0.00,,---,0.00,VWS V14.01,2013-05-02 18:30:00,
2013-05-02 10:34:00,24.2,18.0,29.98,NW,321,2.0,3.0,77,0.00,,---,0.00,VWS V14.01,2013-05-02 18:34:00,
2013-05-02 10:39:00,24.4,17.9,29.98,NW,317,2.0,4.0,76,0.00,,---,0.00,VWS V14.01,2013-05-02 18:39:00,
2013-05-02 10:44:00,24.2,17.7,29.98,NW,317,0.0,4.0,76,0.00,,---,0.00,VWS V14.01,2013-05-02 18:44:00,
2013-05-02 10:49:00,24.0,17.5,29.98,NNW,327,3.0,4.0,76,0.00,,---,0.00,VWS V14.01,2013-05-02 18:49:00,
2013-05-02 10:54:00,23.8,17.4,29.98,North,355,0.0,4.0,76,0.00,,---,0.00,VWS V14.01,2013-05-02 18:54:00,
2013-05-02 10:59:00,24.0,17.9,29.98,North,355,1.0,4.0,77,0.00,,---,0.00,VWS V14.01,2013-05-02 18:59:00,
2013-05-02 11:00:00,24.3,17.8,29.98,NNW,337,1.0,4.0,76,0.00,,---,0.00,VWS V14.01,2013-05-02 19:00:00,
2013-05-02 11:04:00,24.6,18.1,29.98,NNW,337,0.0,2.0,76,0.00,,---,0.00,VWS V14.01,2013-05-02 19:04:00,
2013-05-02 11:09:00,25.2,18.4,29.99,NNW,329,2.0,3.0,75,0.00,,---,0.00,VWS V14.01,2013-05-02 19:09:00,
2013-05-02 11:14:00,25.4,18.3,29.99,WNW,298,2.0,4.0,74,0.00,,---,0.00,VWS V14.01,2013-05-02 19:14:00,
2013-05-02 11:19:00,25.7,18.6,29.99,WNW,292,0.0,4.0,74,0.00,,---,0.00,VWS V14.01,2013-05-02 19:19:00,
2013-05-02 11:24:00,25.8,18.4,29.99,NW,305,0.0,4.0,73,0.00,,---,0.00,VWS V14.01,2013-05-02 19:24:00,
2013-05-02 11:29:00,26.4,19.2,29.99,NW,323,2.0,4.0,74,0.00,,---,0.00,VWS V14.01,2013-05-02 19:29:00,
2013-05-02 11:30:00,26.8,19.3,29.99,NW,323,1.0,4.0,73,0.00,,---,0.00,VWS V14.01,2013-05-02 19:30:00,
2013-05-02 11:34:00,27.0,18.9,29.99,WNW,284,3.0,3.0,71,0.00,,---,0.00,VWS V14.01,2013-05-02 19:34:00,
2013-05-02 11:39:00,27.1,18.6,29.99,WNW,284,1.0,3.0,70,0.00,,---,0.00,VWS V14.01,2013-05-02 19:39:00,
2013-05-02 11:44:00,27.2,18.7,29.99,NNE,28,2.0,3.0,70,0.00,,---,0.00,VWS V14.01,2013-05-02 19:44:00,
2013-05-02 11:49:00,27.3,18.8,29.99,SSE,165,1.0,5.0,70,0.00,,---,0.00,VWS V14.01,2013-05-02 19:49:00,
2013-05-02 11:54:00,27.5,19.0,29.99,SSE,167,1.0,5.0,70,0.00,,---,0.00,VWS V14.01,2013-05-02 19:54:00,
2013-05-02 11:59:00,27.9,19.4,29.99,South,182,1.0,5.0,70,0.00,,---,0.00,VWS V14.01,2013-05-02 19:59:00,
2013-05-02 12:04:00,27.8,18.6,29.99,SSW,207,3.0,6.0,68,0.00,,---,0.00,VWS V14.01,2013-05-02 20:04:00,
2013-05-02 12:09:00,27.9,19.1,29.99,South,180,4.0,6.0,69,0.00,,---,0.00,VWS V14.01,2013-05-02 20:09:00,
2013-05-02 12:14:00,28.1,18.9,29.99,SSE,161,0.0,6.0,68,0.00,,---,0.00,VWS V14.01,2013-05-02 20:14:00,
2013-05-02 12:19:00,28.2,19.0,29.99,East,101,0.0,6.0,68,0.00,,---,0.00,VWS V14.01,2013-05-02 20:19:00,
2013-05-02 12:24:00,28.4,19.5,29.99,SSE,159,2.0,6.0,69,0.00,,---,0.00,VWS V14.01,2013-05-02 20:24:00,
2013-05-02 12:29:00,28.8,19.2,30.00,WSW,241,2.0,6.0,67,0.00,,---,0.00,VWS V14.01,2013-05-02 20:29:00,
2013-05-02 12:30:00,28.9,19.3,30.00,SE,146,4.0,6.0,67,0.00,,---,0.00,VWS V14.01,2013-05-02 20:30:00,
2013-05-02 12:34:00,29.0,19.4,30.00,SSE,154,4.0,4.0,67,0.00,,---,0.00,VWS V14.01,2013-05-02 20:34:00,
2013-05-02 12:39:00,28.9,19.0,30.00,SSE,155,1.0,6.0,66,0.00,,---,0.00,VWS V14.01,2013-05-02 20:39:00,
2013-05-02 12:44:00,29.0,19.4,30.00,SSE,166,1.0,7.0,67,0.00,,---,0.00,VWS V14.01,2013-05-02 20:44:00,
2013-05-02 12:49:00,29.3,19.4,30.00,SSW,192,2.0,7.0,66,0.00,,---,0.00,VWS V14.01,2013-05-02 20:49:00,
2013-05-02 12:53:00,29.2,18.9,30.00,SW,234,0.0,7.0,65,0.00,,---,0.00,VWS V14.01,2013-05-02 20:53:00,
2013-05-02 12:58:00,29.4,19.8,30.00,South,184,4.0,7.0,67,0.00,,---,0.00,VWS V14.01,2013-05-02 20:58:00,
2013-05-02 13:00:00,29.3,19.4,30.00,South,170,7.0,8.0,66,0.00,,---,0.00,VWS V14.01,2013-05-02 21:00:00,
2013-05-02 13:03:00,29.0,19.4,30.00,SSE,158,9.0,9.0,67,0.00,,---,0.00,VWS V14.01,2013-05-02 21:03:00,
2013-05-02 13:08:00,29.0,19.8,30.00,WSW,257,1.0,9.0,68,0.00,,---,0.00,VWS V14.01,2013-05-02 21:08:00,
2013-05-02 13:13:00,29.1,19.5,30.00,SW,222,4.0,9.0,67,0.00,,---,0.00,VWS V14.01,2013-05-02 21:13:00,
2013-05-02 13:18:00,29.7,20.5,30.00,South,190,2.0,9.0,68,0.00,,---,0.00,VWS V14.01,2013-05-02 21:18:00,
2013-05-02 13:23:00,29.9,20.3,30.01,SW,225,0.0,9.0,67,0.00,,---,0.00,VWS V14.01,2013-05-02 21:23:00,
2013-05-02 13:28:00,30.2,19.9,30.01,SW,232,4.0,9.0,65,0.00,,---,0.00,VWS V14.01,2013-05-02 21:28:00,
2013-05-02 13:30:00,30.1,19.8,30.01,SW,227,2.0,9.0,65,0.00,,---,0.00,VWS V14.01,2013-05-02 21:30:00,
2013-05-02 13:33:00,30.1,20.1,30.01,SSW,195,4.0,6.0,66,0.00,,---,0.00,VWS V14.01,2013-05-02 21:33:00,
2013-05-02 13:38:00,30.3,20.0,30.01,SSE,157,6.0,6.0,65,0.00,,---,0.00,VWS V14.01,2013-05-02 21:38:00,
2013-05-02 13:43:00,30.3,20.0,30.01,SSW,202,4.0,8.0,65,0.00,,---,0.00,VWS V14.01,2013-05-02 21:43:00,
2013-05-02 13:48:00,30.1,20.1,30.01,South,180,2.0,8.0,66,0.00,,---,0.00,VWS V14.01,2013-05-02 21:48:00,
2013-05-02 13:53:00,30.2,19.9,30.01,WSW,242,4.0,8.0,65,0.00,,---,0.00,VWS V14.01,2013-05-02 21:53:00,
2013-05-02 13:58:00,29.9,19.9,30.01,West,268,0.0,9.0,66,0.00,,---,0.00,VWS V14.01,2013-05-02 21:58:00,
2013-05-02 14:00:00,30.2,20.2,30.01,South,186,2.0,9.0,66,0.00,,---,0.00,VWS V14.01,2013-05-02 22:00:00,
2013-05-02 14:03:00,30.3,20.3,30.01,South,186,1.0,2.0,66,0.00,,---,0.00,VWS V14.01,2013-05-02 22:03:00,
2013-05-02 14:08:00,30.9,20.5,30.01,SW,219,3.0,6.0,65,0.00,,---,0.00,VWS V14.01,2013-05-02 22:08:00,
2013-05-02 14:13:00,31.2,20.5,30.02,WSW,253,2.0,6.0,64,0.00,,---,0.00,VWS V14.01,2013-05-02 22:13:00,
2013-05-02 14:18:00,31.4,20.6,30.02,South,176,1.0,7.0,64,0.01,,---,0.01,VWS V14.01,2013-05-02 22:18:00,
2013-05-02 14:23:00,31.5,20.4,30.02,SW,216,2.0,7.0,63,0.01,,---,0.01,VWS V14.01,2013-05-02 22:23:00,
2013-05-02 14:28:00,31.8,20.7,30.02,SW,216,1.0,7.0,63,0.01,,---,0.01,VWS V14.01,2013-05-02 22:28:00,
2013-05-02 14:30:00,32.1,20.2,30.02,West,271,1.0,7.0,61,0.01,,---,0.01,VWS V14.01,2013-05-02 22:30:00,
2013-05-02 14:33:00,32.2,20.3,30.02,SSW,211,4.0,6.0,61,0.01,,---,0.01,VWS V14.01,2013-05-02 22:33:00,
2013-05-02 14:38:00,31.4,19.9,30.02,SW,230,5.0,7.0,62,0.01,,---,0.01,VWS V14.01,2013-05-02 22:38:00,
2013-05-02 14:43:00,31.0,19.9,30.02,WSW,248,3.0,8.0,63,0.01,,---,0.01,VWS V14.01,2013-05-02 22:43:00,
2013-05-02 14:48:00,31.2,20.1,30.02,West,261,0.0,9.0,63,0.01,,---,0.01,VWS V14.01,2013-05-02 22:48:00,
2013-05-02 14:53:00,31.6,20.5,30.02,South,190,1.0,9.0,63,0.01,,---,0.01,VWS V14.01,2013-05-02 22:53:00,
2013-05-02 14:58:00,31.9,20.8,30.02,WSW,238,0.0,9.0,63,0.01,,---,0.01,VWS V14.01,2013-05-02 22:58:00,
2013-05-02 15:00:00,32.3,20.4,30.02,South,170,5.0,9.0,61,0.01,,---,0.01,VWS V14.01,2013-05-02 23:00:00,
2013-05-02 15:03:00,32.3,20.4,30.02,WSW,238,4.0,6.0,61,0.01,,---,0.01,VWS V14.01,2013-05-02 23:03:00,
2013-05-02 15:08:00,32.0,20.5,30.02,SW,236,3.0,8.0,62,0.01,,---,0.01,VWS V14.01,2013-05-02 23:08:00,
2013-05-02 15:13:00,32.2,20.3,30.02,SW,217,4.0,8.0,61,0.01,,---,0.01,VWS V14.01,2013-05-02 23:13:00,
2013-05-02 15:18:00,32.7,20.8,30.03,WSW,244,2.0,8.0,61,0.01,,---,0.01,VWS V14.01,2013-05-02 23:18:00,
2013-05-02 15:23:00,32.8,20.5,30.03,SSW,209,2.0,8.0,60,0.01,,---,0.01,VWS V14.01,2013-05-02 23:23:00,
2013-05-02 15:28:00,32.6,20.3,30.02,SW,221,3.0,8.0,60,0.01,,---,0.01,VWS V14.01,2013-05-02 23:28:00,
2013-05-02 15:30:00,32.4,20.1,30.02,WSW,253,3.0,8.0,60,0.01,,---,0.01,VWS V14.01,2013-05-02 23:30:00,
2013-05-02 15:33:00,32.5,20.9,30.02,SSW,192,1.0,3.0,62,0.00,,---,0.01,VWS V14.01,2013-05-02 23:33:00,
2013-05-02 15:38:00,32.9,20.5,30.02,WSW,250,3.0,6.0,60,0.00,,---,0.01,VWS V14.01,2013-05-02 23:38:00,
2013-05-02 15:43:00,33.4,21.4,30.03,WSW,245,5.0,7.0,61,0.00,,---,0.01,VWS V14.01,2013-05-02 23:43:00,
2013-05-02 15:48:00,33.3,20.5,30.03,SW,232,4.0,7.0,59,0.00,,---,0.01,VWS V14.01,2013-05-02 23:48:00,
2013-05-02 15:53:00,33.3,20.5,30.03,SSW,212,3.0,7.0,59,0.00,,---,0.01,VWS V14.01,2013-05-02 23:53:00,
2013-05-02 15:58:00,33.6,20.4,30.03,WSW,246,3.0,7.0,58,0.00,,---,0.01,VWS V14.01,2013-05-02 23:58:00,
2013-05-02 16:00:00,33.6,20.4,30.02,SW,231,4.0,7.0,58,0.00,,---,0.01,VWS V14.01,2013-05-03 00:00:00,
2013-05-02 16:03:00,33.7,20.9,30.02,West,260,2.0,5.0,59,0.00,,---,0.01,VWS V14.01,2013-05-03 00:03:00,
2013-05-02 16:08:00,34.1,21.3,30.03,SW,234,5.0,6.0,59,0.00,,---,0.01,VWS V14.01,2013-05-03 00:08:00,
2013-05-02 16:13:00,33.4,20.6,30.02,SSW,201,3.0,10.0,59,0.00,,---,0.01,VWS V14.01,2013-05-03 00:13:00,
2013-05-02 16:18:00,33.5,20.7,30.02,SW,230,0.0,10.0,59,0.00,,---,0.01,VWS V14.01,2013-05-03 00:18:00,
2013-05-02 16:23:00,34.2,21.4,30.03,West,265,0.0,10.0,59,0.00,,---,0.01,VWS V14.01,2013-05-03 00:23:00,
2013-05-02 16:28:00,34.1,20.9,30.02,SW,227,4.0,10.0,58,0.00,,---,0.01,VWS V14.01,2013-05-03 00:28:00,
2013-05-02 16:30:00,34.0,20.8,30.02,South,179,5.0,10.0,58,0.00,,---,0.01,VWS V14.01,2013-05-03 00:30:00,
2013-05-02 16:33:00,33.9,20.7,30.02,SW,228,3.0,5.0,58,0.00,,---,0.01,VWS V14.01,2013-05-03 00:33:00,
2013-05-02 16:38:00,33.9,20.7,30.03,SSW,206,1.0,7.0,58,0.00,,---,0.01,VWS V14.01,2013-05-03 00:38:00,
2013-05-02 16:43:00,34.2,21.4,30.03,WSW,247,0.0,7.0,59,0.00,,---,0.01,VWS V14.01,2013-05-03 00:43:00,
2013-05-02 16:48:00,34.4,20.8,30.03,SW,214,1.0,7.0,57,0.00,,---,0.01,VWS V14.01,2013-05-03 00:48:00,
2013-05-02 16:53:00,34.3,21.1,30.03,South,183,4.0,7.0,58,0.00,,---,0.01,VWS V14.01,2013-05-03 00:53:00,
2013-05-02 16:58:00,34.1,20.9,30.03,South,188,1.0,7.0,58,0.00,,---,0.01,VWS V14.01,2013-05-03 00:58:00,
2013-05-02 17:00:00,34.0,20.8,30.03,West,261,1.0,7.0,58,0.00,,---,0.01,VWS V14.01,2013-05-03 01:00:00,
2013-05-02 17:03:00,34.0,21.2,30.03,SW,233,2.0,3.0,59,0.00,,---,0.01,VWS V14.01,2013-05-03 01:03:00,
2013-05-02 17:08:00,34.2,21.0,30.03,WSW,250,2.0,5.0,58,0.00,,---,0.01,VWS V14.01,2013-05-03 01:08:00,
2013-05-02 17:13:00,34.1,20.9,30.03,WNW,287,2.0,5.0,58,0.00,,---,0.01,VWS V14.01,2013-05-03 01:13:00,
2013-05-02 17:18:00,34.1,20.9,30.03,SW,233,4.0,5.0,58,0.00,,---,0.01,VWS V14.01,2013-05-03 01:18:00,
2013-05-02 17:23:00,34.1,20.5,30.03,SSW,194,0.0,5.0,57,0.00,,---,0.01,VWS V14.01,2013-05-03 01:23:00,
2013-05-02 17:28:00,34.5,21.3,30.03,SW,229,0.0,5.0,58,0.00,,---,0.01,VWS V14.01,2013-05-03 01:28:00,
2013-05-02 17:30:00,34.8,21.5,30.03,SW,236,0.0,5.0,58,0.00,,---,0.01,VWS V14.01,2013-05-03 01:30:00,
2013-05-02 17:33:00,34.8,21.5,30.03,SSW,192,3.0,5.0,58,0.00,,---,0.01,VWS V14.01,2013-05-03 01:33:00,
2013-05-02 17:38:00,34.3,21.1,30.03,South,178,0.0,9.0,58,0.00,,---,0.01,VWS V14.01,2013-05-03 01:38:00,
2013-05-02 17:43:00,34.1,20.9,30.03,SSE,161,2.0,9.0,58,0.00,,---,0.01,VWS V14.01,2013-05-03 01:43:00,
2013-05-02 17:48:00,34.3,21.5,30.03,South,176,2.0,9.0,59,0.00,,---,0.01,VWS V14.01,2013-05-03 01:48:00,
2013-05-02 17:53:00,33.9,21.1,30.03,SSE,159,2.0,9.0,59,0.00,,---,0.01,VWS V14.01,2013-05-03 01:53:00,
2013-05-02 17:58:00,33.9,21.1,30.03,South,176,1.0,9.0,59,0.00,,---,0.01,VWS V14.01,2013-05-03 01:58:00,
2013-05-02 18:00:00,33.8,21.4,30.03,SW,221,2.0,9.0,60,0.00,,---,0.01,VWS V14.01,2013-05-03 02:00:00,
2013-05-02 18:03:00,33.8,22.5,30.03,SW,221,0.0,2.0,63,0.00,,---,0.01,VWS V14.01,2013-05-03 02:03:00,
2013-05-02 18:08:00,33.5,21.1,30.03,SW,221,3.0,7.0,60,0.00,,---,0.01,VWS V14.01,2013-05-03 02:08:00,
2013-05-02 18:13:00,33.5,21.1,30.03,SSE,166,5.0,7.0,60,0.00,,---,0.01,VWS V14.01,2013-05-03 02:13:00,
2013-05-02 18:18:00,33.4,21.0,30.03,SSW,204,1.0,7.0,60,0.00,,---,0.01,VWS V14.01,2013-05-03 02:18:00,
2013-05-02 18:23:00,33.6,21.2,30.03,SSW,196,1.0,7.0,60,0.00,,---,0.01,VWS V14.01,2013-05-03 02:23:00,
2013-05-02 18:28:00,33.5,21.1,30.03,SW,218,2.0,7.0,60,0.00,,---,0.01,VWS V14.01,2013-05-03 02:28:00,
2013-05-02 18:30:00,33.4,21.0,30.03,South,189,2.0,7.0,60,0.00,,---,0.01,VWS V14.01,2013-05-03 02:30:00,
2013-05-02 18:33:00,33.4,21.0,30.03,SSE,164,5.0,6.0,60,0.00,,---,0.01,VWS V14.01,2013-05-03 02:33:00,
2013-05-02 18:38:00,33.2,21.2,30.03,South,175,2.0,6.0,61,0.00,,---,0.01,VWS V14.01,2013-05-03 02:38:00,
2013-05-02 18:43:00,33.0,21.0,30.03,South,173,0.0,6.0,61,0.00,,---,0.01,VWS V14.01,2013-05-03 02:43:00,
2013-05-02 18:48:00,32.8,21.2,30.03,SSE,160,1.0,6.0,62,0.00,,---,0.01,VWS V14.01,2013-05-03 02:48:00,
2013-05-02 18:53:00,32.5,20.6,30.03,SSE,160,1.0,6.0,61,0.00,,---,0.01,VWS V14.01,2013-05-03 02:53:00,
2013-05-02 18:58:00,32.5,20.9,30.03,South,169,1.0,6.0,62,0.00,,---,0.01,VWS V14.01,2013-05-03 02:58:00,
2013-05-02 19:00:00,32.5,20.9,30.03,South,175,2.0,6.0,62,0.00,,---,0.01,VWS V14.01,2013-05-03 03:00:00,
2013-05-02 19:03:00,32.6,21.0,30.03,South,175,2.0,2.0,62,0.00,,---,0.01,VWS V14.01,2013-05-03 03:03:00,
2013-05-02 19:07:00,32.6,21.0,30.03,South,172,0.0,4.0,62,0.00,,---,0.01,VWS V14.01,2013-05-03 03:07:00,
2013-05-02 19:12:00,32.5,20.9,30.03,South,172,0.0,4.0,62,0.00,,---,0.01,VWS V14.01,2013-05-03 03:12:00,
2013-05-02 19:17:00,32.3,20.8,30.03,South,184,1.0,6.0,62,0.00,,---,0.01,VWS V14.01,2013-05-03 03:17:00,
2013-05-02 19:22:00,32.3,21.1,30.03,SSW,196,1.0,6.0,63,0.00,,---,0.01,VWS V14.01,2013-05-03 03:22:00,
2013-05-02 19:27:00,32.4,21.2,30.03,SSW,196,0.0,6.0,63,0.00,,---,0.01,VWS V14.01,2013-05-03 03:27:00,
2013-05-02 19:30:00,32.4,20.9,30.03,SSW,192,0.0,6.0,62,0.00,,---,0.01,VWS V14.01,2013-05-03 03:30:00,
2013-05-02 19:32:00,32.3,20.8,30.03,SSW,192,3.0,3.0,62,0.00,,---,0.01,VWS V14.01,2013-05-03 03:32:00,
2013-05-02 19:37:00,32.2,20.7,30.03,SSW,192,1.0,3.0,62,0.00,,---,0.01,VWS V14.01,2013-05-03 03:37:00,
2013-05-02 19:42:00,32.1,20.9,30.04,SSW,192,0.0,3.0,63,0.00,,---,0.01,VWS V14.01,2013-05-03 03:42:00,
2013-05-02 19:48:00,32.1,20.9,30.03,SSW,192,0.0,3.0,63,0.00,,---,0.01,VWS V14.01,2013-05-03 03:48:00,
2013-05-02 19:53:00,32.1,20.6,30.04,SSW,192,0.0,3.0,62,0.00,,---,0.01,VWS V14.01,2013-05-03 03:53:00,
2013-05-02 19:58:00,32.1,20.9,30.04,SSW,192,0.0,3.0,63,0.00,,---,0.01,VWS V14.01,2013-05-03 03:58:00,
2013-05-02 20:00:00,32.1,20.6,30.04,SSW,192,0.0,3.0,62,0.00,,---,0.01,VWS V14.01,2013-05-03 04:00:00,
2013-05-02 20:01:00,32.1,20.6,30.04,SSW,192,0.0,3.0,62,0.00,,---,0.01,VWS V14.01,2013-05-03 04:01:00,
2013-05-02 20:06:00,32.2,21.0,30.04,SSW,192,0.0,0.0,63,0.00,,---,0.01,VWS V14.01,2013-05-03 04:06:00,
2013-05-02 20:11:00,32.3,21.1,30.04,SSW,192,0.0,1.0,63,0.00,,---,0.01,VWS V14.01,2013-05-03 04:11:00,
2013-05-02 20:16:00,32.3,20.8,30.04,SSW,192,0.0,1.0,62,0.00,,---,0.01,VWS V14.01,2013-05-03 04:16:00,
2013-05-02 20:21:00,32.4,20.9,30.04,SSW,192,0.0,1.0,62,0.00,,---,0.01,VWS V14.01,2013-05-03 04:21:00,
2013-05-02 20:26:00,32.4,20.9,30.04,SSW,192,0.0,1.0,62,0.00,,---,0.01,VWS V14.01,2013-05-03 04:26:00,
2013-05-02 20:30:00,32.3,20.8,30.04,SSW,192,0.0,1.0,62,0.00,,---,0.01,VWS V14.01,2013-05-03 04:30:00,
2013-05-02 20:31:00,32.3,21.1,30.04,SSW,192,0.0,1.0,63,0.00,,---,0.01,VWS V14.01,2013-05-03 04:31:00,
2013-05-02 20:36:00,32.3,21.1,30.04,SSW,192,0.0,0.0,63,0.00,,---,0.01,VWS V14.01,2013-05-03 04:36:00,
2013-05-02 20:41:00,32.3,20.8,30.04,SSW,192,0.0,0.0,62,0.00,,---,0.01,VWS V14.01,2013-05-03 04:41:00,
2013-05-02 20:46:00,32.3,21.1,30.04,SSW,192,0.0,0.0,63,0.00,,---,0.01,VWS V14.01,2013-05-03 04:46:00,
2013-05-02 20:51:00,32.3,21.1,30.04,SSW,192,0.0,0.0,63,0.00,,---,0.01,VWS V14.01,2013-05-03 04:51:00,
2013-05-02 20:56:00,32.2,21.0,30.04,SSW,192,0.0,0.0,63,0.00,,---,0.01,VWS V14.01,2013-05-03 04:56:00,
2013-05-02 21:00:00,32.2,21.0,30.04,SSW,192,0.0,0.0,63,0.00,,---,0.01,VWS V14.01,2013-05-03 05:00:00,
2013-05-02 21:01:00,32.2,21.0,30.04,SSW,192,0.0,0.0,63,0.00,,---,0.01,VWS V14.01,2013-05-03 05:01:00,
2013-05-02 21:06:00,32.1,20.9,30.04,SSW,192,0.0,0.0,63,0.00,,---,0.01,VWS V14.01,2013-05-03 05:06:00,
2013-05-02 21:11:00,32.1,20.9,30.04,SSW,192,0.0,1.0,63,0.00,,---,0.01,VWS V14.01,2013-05-03 05:11:00,
2013-05-02 21:16:00,32.0,20.9,30.04,SSW,192,0.0,1.0,63,0.00,,---,0.01,VWS V14.01,2013-05-03 05:16:00,
2013-05-02 21:21:00,31.9,21.1,30.04,SSW,192,0.0,1.0,64,0.00,,---,0.01,VWS V14.01,2013-05-03 05:21:00,
2013-05-02 21:26:00,31.9,20.8,30.04,SSW,192,0.0,1.0,63,0.00,,---,0.01,VWS V14.01,2013-05-03 05:26:00,
2013-05-02 21:30:00,31.7,20.9,30.04,SSW,192,0.0,1.0,64,0.00,,---,0.01,VWS V14.01,2013-05-03 05:30:00,
2013-05-02 21:31:00,31.7,20.9,30.04,SSW,192,0.0,1.0,64,0.00,,---,0.01,VWS V14.01,2013-05-03 05:31:00,
2013-05-02 21:36:00,31.7,20.9,30.04,SSW,192,0.0,0.0,64,0.00,,---,0.01,VWS V14.01,2013-05-03 05:36:00,
2013-05-02 21:41:00,31.6,20.8,30.04,SSW,192,0.0,0.0,64,0.00,,---,0.01,VWS V14.01,2013-05-03 05:41:00,
2013-05-02 21:46:00,31.6,20.8,30.04,SSW,192,0.0,1.0,64,0.00,,---,0.01,VWS V14.01,2013-05-03 05:46:00,
2013-05-02 21:51:00,31.6,20.8,30.04,SSW,192,0.0,2.0,64,0.00,,---,0.01,VWS V14.01,2013-05-03 05:51:00,
2013-05-02 21:56:00,31.6,21.2,30.04,SSW,192,0.0,2.0,65,0.00,,---,0.01,VWS V14.01,2013-05-03 05:56:00,
2013-05-02 22:00:00,31.5,21.1,30.04,SSW,192,0.0,2.0,65,0.00,,---,0.01,VWS V14.01,2013-05-03 06:00:00,
2013-05-02 22:05:00,31.5,21.1,30.04,SSW,192,0.0,1.0,65,0.00,,---,0.01,VWS V14.01,2013-05-03 06:05:00,
2013-05-02 22:11:00,31.3,20.5,30.04,SSW,192,0.0,1.0,64,0.00,,---,0.01,VWS V14.01,2013-05-03 06:11:00,
2013-05-02 22:16:00,31.3,20.9,30.04,SSW,192,0.0,1.0,65,0.00,,---,0.01,VWS V14.01,2013-05-03 06:16:00,
2013-05-02 22:21:00,31.1,20.0,30.04,SSW,192,0.0,1.0,63,0.00,,---,0.01,VWS V14.01,2013-05-03 06:21:00,
2013-05-02 22:26:00,31.0,20.3,30.04,SSW,192,0.0,1.0,64,0.00,,---,0.01,VWS V14.01,2013-05-03 06:26:00,
2013-05-02 22:30:00,30.9,20.2,30.04,SSW,192,0.0,1.0,64,0.00,,---,0.01,VWS V14.01,2013-05-03 06:30:00,
2013-05-02 22:35:00,30.9,20.5,30.04,SSW,192,0.0,0.0,65,0.00,,---,0.01,VWS V14.01,2013-05-03 06:35:00,
2013-05-02 22:40:00,30.8,20.4,30.05,SSW,192,0.0,0.0,65,0.00,,---,0.01,VWS V14.01,2013-05-03 06:40:00,
2013-05-02 22:45:00,30.9,20.5,30.05,SSW,192,0.0,0.0,65,0.00,,---,0.01,VWS V14.01,2013-05-03 06:45:00,
2013-05-02 22:50:00,30.8,20.4,30.05,SSW,192,0.0,1.0,65,0.00,,---,0.01,VWS V14.01,2013-05-03 06:50:00,
2013-05-02 22:55:00,30.8,20.4,30.05,SSW,192,0.0,1.0,65,0.00,,---,0.01,VWS V14.01,2013-05-03 06:55:00,
2013-05-02 23:00:00,30.9,20.5,30.05,SSW,192,0.0,1.0,65,0.00,,---,0.01,VWS V14.01,2013-05-03 07:00:00,
2013-05-02 23:05:00,30.8,20.4,30.05,SSW,192,0.0,0.0,65,0.00,,---,0.01,VWS V14.01,2013-05-03 07:05:00,
2013-05-02 23:10:00,30.7,20.3,30.05,SSW,192,0.0,0.0,65,0.00,,---,0.01,VWS V14.01,2013-05-03 07:10:00,
2013-05-02 23:15:00,30.7,20.3,30.05,SSW,192,0.0,2.0,65,0.00,,---,0.01,VWS V14.01,2013-05-03 07:15:00,
2013-05-02 23:20:00,30.8,20.1,30.05,ESE,103,0.0,4.0,64,0.00,,---,0.01,VWS V14.01,2013-05-03 07:20:00,
2013-05-02 23:25:00,30.8,20.1,30.05,ESE,103,0.0,4.0,64,0.00,,---,0.01,VWS V14.01,2013-05-03 07:25:00,
2013-05-02 23:30:00,30.8,20.1,30.05,North,5,0.0,4.0,64,0.00,,---,0.01,VWS V14.01,2013-05-03 07:30:00,
2013-05-02 23:35:00,30.8,20.1,30.05,NNE,18,0.0,0.0,64,0.00,,---,0.01,VWS V14.01,2013-05-03 07:35:00,
2013-05-02 23:40:00,30.8,20.1,30.06,NNE,23,0.0,1.0,64,0.00,,---,0.01,VWS V14.01,2013-05-03 07:40:00,
2013-05-02 23:45:00,30.8,20.1,30.05,NE,34,1.0,2.0,64,0.00,,---,0.01,VWS V14.01,2013-05-03 07:45:00,
2013-05-02 23:50:00,31.0,19.9,30.05,NE,40,0.0,3.0,63,0.00,,---,0.01,VWS V14.01,2013-05-03 07:50:00,
2013-05-02 23:55:00,31.0,19.9,30.05,NE,40,0.0,3.0,63,0.00,,---,0.01,VWS V14.01,2013-05-03 07:55:00,